| time (UTC) | temp F | wind direction | speed MPH | gust MPH | rain 1hr in | rain 24hr in | rain mn in | humidity % | barometer mb |
| 20260504050532 | 47 | 109 | 2.0 | 3.0 | 0.00 | 0.00 | 0.00 | 48 | 1016.8 |
| 20260504045532 | 47 | 181 | 3.0 | 4.0 | 0.00 | 0.00 | 0.00 | 47 | 1016.9 |
| 20260504044532 | 48 | 191 | 2.0 | 3.0 | 0.00 | 0.00 | 0.00 | 44 | 1017.0 |
| 20260504043532 | 47 | 325 | 1.0 | 3.0 | 0.00 | 0.00 | 0.00 | 40 | 1017.0 |
| 20260504042517 | 47 | 103 | 2.0 | 3.0 | 0.00 | 0.00 | 0.00 | 51 | 1017.0 |
| 20260504041518 | 47 | 129 | 3.0 | 4.0 | 0.00 | 0.00 | 0.00 | 47 | 1017.0 |
| 20260504040538 | 48 | 150 | 4.0 | 4.0 | 0.00 | 0.00 | 0.00 | 49 | 1017.0 |
| 20260504035518 | 49 | 128 | 2.0 | 2.0 | 0.00 | 0.00 | 0.00 | 42 | 1017.0 |
| 20260504034539 | 49 | 103 | 2.0 | 3.0 | 0.00 | 0.00 | 0.00 | 44 | 1017.0 |
| 20260504033559 | 49 | 156 | 2.0 | 3.0 | 0.00 | 0.00 | 0.00 | 43 | 1017.0 |
| 20260504032518 | 50 | 169 | 2.0 | 3.0 | 0.00 | 0.00 | 0.00 | 40 | 1016.9 |
| 20260504031519 | 50 | 64 | 2.0 | 3.0 | 0.00 | 0.00 | 0.00 | 39 | 1016.9 |
| 20260504030539 | 50 | 22 | 1.0 | 2.0 | 0.00 | 0.00 | 0.00 | 37 | 1016.7 |
| 20260504025522 | 50 | 62 | 3.0 | 5.0 | 0.00 | 0.00 | 0.00 | 40 | 1016.6 |
| 20260504024519 | 50 | 285 | 2.0 | 3.0 | 0.00 | 0.00 | 0.00 | 39 | 1016.5 |
| 20260504023520 | 51 | 310 | 1.0 | 3.0 | 0.00 | 0.00 | 0.00 | 37 | 1016.4 |
| 20260504022520 | 52 | 283 | 1.0 | 3.0 | 0.00 | 0.00 | 0.00 | 35 | 1016.3 |
| 20260504021517 | 53 | 259 | 4.0 | 6.0 | 0.00 | 0.00 | 0.00 | 33 | 1016.3 |
| 20260504020517 | 53 | 268 | 5.0 | 9.0 | 0.00 | 0.00 | 0.00 | 32 | 1016.2 |
| 20260504015523 | 54 | 243 | 4.0 | 8.0 | 0.00 | 0.00 | 0.00 | 31 | 1016.1 |
| 20260504014521 | 55 | 234 | 7.0 | 10.0 | 0.00 | 0.00 | 0.00 | 28 | 1016.1 |
| 20260504013518 | 55 | 269 | 8.0 | 13.0 | 0.00 | 0.00 | 0.00 | 28 | 1016.1 |
| 20260504012518 | 56 | 322 | 6.0 | 9.0 | 0.00 | 0.00 | 0.00 | 28 | 1016.0 |
| 20260504011518 | 56 | 307 | 8.0 | 11.0 | 0.00 | 0.00 | 0.00 | 28 | 1015.8 |
| 20260504010518 | 57 | 301 | 6.0 | 11.0 | 0.00 | 0.00 | 0.00 | 26 | 1015.8 |
| 20260504005519 | 57 | 323 | 4.0 | 9.0 | 0.00 | 0.00 | 0.00 | 23 | 1015.7 |
| 20260504004519 | 58 | 316 | 4.0 | 7.0 | 0.00 | 0.00 | 0.00 | 23 | 1015.7 |
| 20260504003519 | 58 | 299 | 7.0 | 9.0 | 0.00 | 0.00 | 0.00 | 23 | 1015.7 |
| 20260504002520 | 58 | 300 | 4.0 | 6.0 | 0.00 | 0.00 | 0.00 | 23 | 1015.7 |
| 20260504001519 | 58 | 306 | 5.0 | 9.0 | 0.00 | 0.00 | 0.00 | 23 | 1015.8 |
| 20260504000600 | 58 | 300 | 8.0 | 12.0 | 0.00 | 0.00 | 0.00 | 23 | 1015.8 |
| 20260503235520 | 59 | 289 | 7.0 | 11.0 | 0.00 | 0.00 | 0.00 | 22 | 1015.8 |
| 20260503234523 | 59 | 309 | 2.0 | 4.0 | 0.00 | 0.00 | 0.00 | 21 | 1015.8 |
| 20260503233520 | 60 | 300 | 6.0 | 9.0 | 0.00 | 0.00 | 0.00 | 21 | 1015.9 |
| 20260503232541 | 60 | 288 | 9.0 | 15.0 | 0.00 | 0.00 | 0.00 | 21 | 1015.8 |
| 20260503231520 | 59 | 281 | 4.0 | 8.0 | 0.00 | 0.00 | 0.00 | 21 | 1015.9 |
| 20260503230520 | 61 | 286 | 7.0 | 15.0 | 0.00 | 0.00 | 0.00 | 20 | 1015.9 |
| 20260503225521 | 59 | 9 | 4.0 | 6.0 | 0.00 | 0.00 | 0.00 | 20 | 1016.1 |
| 20260503224521 | 60 | 10 | 4.0 | 8.0 | 0.00 | 0.00 | 0.00 | 20 | 1016.1 |
| 20260503223520 | 59 | 22 | 4.0 | 8.0 | 0.00 | 0.00 | 0.00 | 20 | 1016.2 |
| 20260503222521 | 59 | 332 | 3.0 | 6.0 | 0.00 | 0.00 | 0.00 | 21 | 1016.3 |
| 20260503221521 | 59 | 2 | 4.0 | 9.0 | 0.00 | 0.00 | 0.00 | 20 | 1016.4 |
| 20260503220542 | 59 | 49 | 5.0 | 9.0 | 0.00 | 0.00 | 0.00 | 19 | 1016.6 |
| 20260503215522 | 59 | 1 | 4.0 | 8.0 | 0.00 | 0.00 | 0.00 | 19 | 1016.7 |
| 20260503214522 | 60 | 324 | 4.0 | 10.0 | 0.00 | 0.00 | 0.00 | 20 | 1016.8 |
| 20260503213539 | 60 | 311 | 5.0 | 12.0 | 0.00 | 0.00 | 0.00 | 20 | 1017.0 |
| 20260503212522 | 60 | 18 | 6.0 | 10.0 | 0.00 | 0.00 | 0.00 | 18 | 1017.1 |
| 20260503211519 | 61 | 295 | 5.0 | 11.0 | 0.00 | 0.00 | 0.00 | 17 | 1017.3 |
| 20260503210516 | 62 | 20 | 7.0 | 12.0 | 0.00 | 0.00 | 0.00 | 17 | 1017.5 |
| 20260503205522 | 61 | 344 | 4.0 | 8.0 | 0.00 | 0.00 | 0.00 | 18 | 1017.7 |
| 20260503204523 | 60 | 11 | 2.0 | 7.0 | 0.00 | 0.00 | 0.00 | 18 | 1017.9 |
| 20260503203519 | 61 | 357 | 8.0 | 14.0 | 0.00 | 0.00 | 0.00 | 18 | 1018.1 |
| 20260503202523 | 60 | 0 | 6.0 | 10.0 | 0.00 | 0.00 | 0.00 | 19 | 1018.3 |
| 20260503201523 | 59 | 342 | 4.0 | 9.0 | 0.00 | 0.00 | 0.00 | 20 | 1018.5 |
| 20260503200517 | 59 | 9 | 7.0 | 11.0 | 0.00 | 0.00 | 0.00 | 21 | 1018.6 |
| 20260503195517 | 59 | 314 | 6.0 | 13.0 | 0.00 | 0.00 | 0.00 | 20 | 1018.8 |
| 20260503194517 | 60 | 320 | 5.0 | 9.0 | 0.00 | 0.00 | 0.00 | 18 | 1018.8 |
| 20260503193518 | 59 | 355 | 5.0 | 9.0 | 0.00 | 0.00 | 0.00 | 19 | 1018.9 |
| 20260503192524 | 59 | 316 | 5.0 | 10.0 | 0.00 | 0.00 | 0.00 | 18 | 1019.1 |
| 20260503191539 | 59 | 298 | 4.0 | 9.0 | 0.00 | 0.00 | 0.00 | 18 | 1019.2 |
| 20260503190518 | 58 | 205 | 6.0 | 9.0 | 0.00 | 0.00 | 0.00 | 20 | 1019.4 |
| 20260503185518 | 58 | 272 | 9.0 | 16.0 | 0.00 | 0.00 | 0.00 | 20 | 1019.5 |
| 20260503184518 | 57 | 289 | 7.0 | 14.0 | 0.00 | 0.00 | 0.00 | 21 | 1019.8 |
| 20260503183520 | 57 | 297 | 5.0 | 9.0 | 0.00 | 0.00 | 0.00 | 22 | 1020.0 |
| 20260503182519 | 57 | 278 | 6.0 | 13.0 | 0.00 | 0.00 | 0.00 | 23 | 1020.1 |
| 20260503181539 | 56 | 41 | 3.0 | 7.0 | 0.00 | 0.00 | 0.00 | 23 | 1020.4 |
| 20260503180519 | 56 | 32 | 5.0 | 9.0 | 0.00 | 0.00 | 0.00 | 23 | 1020.5 |
| 20260503175519 | 56 | 341 | 4.0 | 8.0 | 0.00 | 0.00 | 0.00 | 24 | 1020.6 |
| 20260503174528 | 55 | 327 | 2.0 | 5.0 | 0.00 | 0.00 | 0.00 | 24 | 1020.7 |
| 20260503173520 | 55 | 298 | 4.0 | 8.0 | 0.00 | 0.00 | 0.00 | 24 | 1020.8 |
| 20260503172528 | 54 | 335 | 2.0 | 4.0 | 0.00 | 0.00 | 0.00 | 24 | 1021.0 |
| 20260503171529 | 54 | 10 | 2.0 | 4.0 | 0.00 | 0.00 | 0.00 | 25 | 1021.0 |
| 20260503170520 | 54 | 52 | 3.0 | 7.0 | 0.00 | 0.00 | 0.00 | 25 | 1021.0 |
| 20260503150522 | 51 | 148 | 4.0 | 7.0 | 0.00 | 0.00 | 0.00 | 34 | 1022.0 |
| 20260503130517 | 40 | 86 | 4.0 | 6.0 | 0.00 | 0.00 | 0.00 | 48 | 1021.9 |
| 20260503110519 | 37 | 138 | 6.0 | 9.0 | 0.00 | 0.00 | 0.00 | 50 | 1021.5 |
| 20260503081518 | 38 | 149 | 8.0 | 10.0 | 0.00 | 0.00 | 0.00 | 49 | 1021.7 |
| 20260503080518 | 38 | 147 | 7.0 | 9.0 | 0.00 | 0.00 | 0.00 | 49 | 1021.7 |
| 20260503072519 | 38 | 147 | 6.0 | 8.0 | 0.00 | 0.00 | 0.00 | 49 | 1022.0 |
| 20260503071519 | 38 | 149 | 6.0 | 8.0 | 0.00 | 0.00 | 0.00 | 53 | 1022.1 |
| 20260503070539 | 38 | 161 | 6.0 | 8.0 | 0.00 | 0.00 | 0.00 | 50 | 1022.1 |